Pagina principale
METAR-TAF:

METAR-TAF

Aeroporti :

Kélibia, Tunisia

latitudine: 36-51N, longitudine: 011-05E, altezza: 29 m

Osservazione

Il bollettino è stato emesso 43 minuti fa, alle 15:00 UTC
Vento 6 kt da ovest/sud-ovest
Temperature 16°C
Umidità 88%
Pressione 1015 hPa
Visibilità 10 km o più
Nubi sparse ad un'altezza di 2000 ft
Nubi sparse ad un'altezza di 3000 ft

METAR: DTTL 091500Z 25006KT 9999 SCT020 SCT030 16/14 Q1015 RERA

Ora: 16:43 (15:43 UTC)


TAF: mancante

Osservazioni e previsioni meteorologiche di più di 4000 aeroporti (messaggi METAR e TAF).

Le stazioni disponibili sono rappresentate dai dischi gialli e rossi sulla carta.

Puntare il mouse per vedere il nome della stazione.

Clicca sopra per visualizzare le osservazioni e previsioni meteorologiche.

Per cambiare la mappa : fare clic sui pulsanti verdi con una croce nera per ingrandire, il pulsante verde con un trattino per diminuire, o sulla freccia verde per le mappe adiacenti.


METAR-TAF: